Погода в Ольборге

Дания     57°02′58″N   9°54′58″E
темп.,
°C
ветер,
м/с
пор.,
м/с
влажн.,
%
обл.,
%
осадки,
мм/ч
давл.,
гПа
погр.,
м
15 мая, сб
сб1523:00+11з3694100 0.1 1002268
02:00+9зюз3796100 0.1 1002331
05:00+9зюз5895100 0.0 1001453
08:00+8зюз5996100 1.4 1001531
11:00+10зюз5890100 2.2 1001663
14:00+11зюз6780100 2.3 1002964
17:00+12зюз6770100 0.1 10021100
20:00+10з47785 0.1 1002592
16 мая, вс
вс1623:00+6юз22904 0.0 100324
02:00+5зюз229146 0.0 100220
05:00+4ююв0090100 0.0 100210
08:00+8всв227986 0.0 1002199
11:00+13в347064 0.0 10011024
14:00+13в4473100 1.0 10011006
17:00+11в4583100 1.3 1000570
20:00+10в349281 2.1 999239
17 мая, пн
пн1723:00+9всв2295100 0.7 99940
02:00+9ююв229398 0.7 99948
05:00+6ю22968 0.0 99938
08:00+9ююз359197 0.0 999327
11:00+13юз347370 0.2 999940
14:00+13юз2369100 2.0 999913
17:00+13з347499 2.8 1000741
20:00+10ссз349073 4.7 1000213
18 мая, вт
вт1823:00+8зсз2290100 0.1 100119
02:00+6зюз22925 0.1 100226
05:00+6зюз359473 0.0 100389
08:00+9з58829 0.0 1004458
11:00+12з67635 0.0 10051114
14:00+13з785912 0.0 10061397
17:00+12з78617 0.0 10071347
20:00+9з610745 0.0 1007765
19 мая, ср
ср1923:00+6зюз5128799 0.0 1007405
02:00+6зюз613915 0.0 1007391
05:00+5зюз512955 0.0 1006319
08:00+9зюз711790 0.0 1007712
11:00+12з79625 0.0 10071287
14:00+13з895913 0.0 10071574
17:00+12з810635 0.0 10081202
20:00+10з712785 0.0 1008860